Presure
367 393 364 354 345 346 341 332 330 343 294 350 340 332 323 316 311 299 290 282 278 274 271 266 267 261 297 289 281 279 279 272 263 255 254 247 250 241 241 247 245 243 242 242 246 250 252 259 261 274 292 313 371 361
376 369 359 336 342 334 328 325 354 367 349 338 324 315 313 309 296 286 277 274 267 269 268 258 282 284 277 278 284 275 254 244 258 256 248 249 248 250 238 240 246 245 243 247 253 254 262 273 288 298 302 358 338 332
364 350 337 345 345 333 347 341 351 297 336 324 317 311 307 293 285 277 272 262 270 264 261 300 279 276 270 281 280 258 257 259 256 248 243 248 252 248 248 252 252 253 253 254 260 273 274 291 292 307 353 331 320 309
345 338 333 325 334 324 341 328 323 333 321 314 310 306 293 280 272 267 258 256 259 260 278 285 274 276 276 273 266 264 257 259 258 255 252 248 250 249 248 248 251 253 261 270 271 288 281 286 304 353 320 308 295 288
365 338 325 333 312 340 321 350 335 328 315 308 301 287 282 280 268 256 257 258 256 278 272 276 258 268 268 271 267 259 256 249 257 262 261 257 254 251 257 258 267 267 265 269 290 277 275 299 350 331 295 294 282 282
351 340 339 322 343 323 339 328 326 312 299 290 288 286 268 256 256 261 255 252 280 280 270 271 270 263 261 264 263 258 257 255 254 251 251 255 261 262 259 266 270 267 285 276 274 270 285 295 328 313 290 283 272 275
339 336 317 335 312 325 302 315 308 302 294 283 277 268 259 256 258 254 251 271 270 269 261 258 263 257 252 252 255 255 251 253 258 260 259 260 262 262 260 272 282 280 272 266 269 287 281 356 321 307 283 285 270 276
331 329 320 323 304 308 309 302 301 295 282 273 267 264 258 257 254 254 276 266 267 269 265 262 259 255 252 252 254 253 258 266 263 262 263 271 273 274 267 281 278 269 277 285 285 275 303 333 309 302 287 280 274 267
308 297 317 317 309 305 301 297 291 281 275 269 266 258 256 256 256 261 271 265 263 259 262 264 262 261 263 264 255 253 261 266 266 263 265 265 276 286 273 270 275 281 285 280 273 300 336 317 307 295 295 280 279 270
298 307 318 314 303 303 294 287 282 278 271 267 264 258 252 255 271 272 263 262 259 257 258 257 258 256 254 257 256 255 257 263 267 275 281 276 273 278 279 282 283 287 279 279 378 335 315 330 309 295 291 281 281 272
319 309 310 301 301 292 286 280 280 272 266 263 255 253 254 256 275 267 265 261 254 252 256 257 257 256 260 258 259 262 267 275 275 277 264 276 284 291 297 291 331 323 376 368 363 323 312 310 296 303 289 273 279 273
311 309 305 299 292 287 280 278 273 266 263 256 253 255 254 282 276 264 263 261 261 259 261 258 259 262 265 268 270 274 275 270 262 273 291 304 420 463 466 464 418 380 360 355 348 313 303 298 300 296 289 286 283 278
298 308 299 294 290 280 277 274 268 265 264 255 253 255 253 256 263 266 265 267 268 271 272 267 265 266 271 272 271 264 260 258 282 301 409 401 428 433 435 431 377 352 351 343 334 310 303 295 290 285 289 284 295 279
301 299 297 290 283 276 274 269 266 260 257 253 252 251 250 250 271 279 283 276 270 267 267 266 268 270 269 263 263 256 268 286 308 393 371 375 387 389 362 346 343 343 339 326 322 320 301 279 291 275 274 258 276 294
299 296 291 287 280 275 270 267 262 260 252 253 253 250 251 253 264 265 268 269 270 270 271 266 257 258 263 265 270 274 286 357 367 348 354 344 332 324 320 320 317 322 323 319 310 294 283 295 289 290 299 291 278 281
298 295 289 283 276 274 270 265 261 258 254 255 255 253 252 251 263 263 263 261 262 259 259 259 260 257 261 259 272 287 365 356 357 337 339 328 323 318 313 312 314 332 331 326 327 330 322 334 330 308 286 290 277 264
298 289 288 282 279 275 267 265 263 256 256 253 252 255 255 250 251 254 257 257 256 254 252 255 250 258 268 274 282 392 357 344 329 326 327 320 320 322 324 323 317 318 321 327 337 357 390 356 353 295 274 264 255 250
294 288 286 281 279 276 268 264 264 259 255 253 253 254 254 252 253 256 254 253 252 254 257 260 260 267 270 279 382 375 344 330 323 337 316 321 320 314 311 303 303 312 318 318 299 288 283 274 264 259 250 255 256 246
291 289 285 282 278 276 272 266 264 264 256 254 253 253 254 255 255 253 255 255 254 257 258 267 265 265 273 284 379 345 338 331 335 325 320 323 314 307 306 308 299 287 279 274 267 265 263 246 252 253 240 248 253 249
292 290 285 283 280 276 275 270 269 266 261 258 257 256 257 256 255 255 254 251 258 262 261 261 265 279 281 310 356 341 344 335 338 318 309 305 304 296 285 281 269 268 259 266 263 251 253 248 254 243 250 247 246 245
293 292 273 287 281 278 275 273 268 267 263 264 261 259 257 256 253 251 255 260 259 262 262 266 276 284 290 351 325 328 328 337 320 306 299 270 286 276 272 264 267 254 267 254 250 250 248 255 228 247 246 238 241 246
304 299 286 292 281 284 280 274 268 270 269 266 262 263 259 256 259 258 262 261 261 263 264 270 284 290 298 365 346 313 317 332 309 298 299 277 279 275 260 271 256 265 256 251 244 255 253 228 244 242 238 242 256 246
312 295 297 294 288 288 282 281 277 273 269 271 270 269 267 267 265 266 264 264 266 271 273 285 288 288 300 349 345 335 314 329 306 297 296 281 267 270 262 261 257 254 254 243 251 235 245 242 243 238 242 234 233 234
305 302 293 292 285 287 291 286 283 281 280 278 275 274 272 269 268 268 269 271 273 279 282 291 292 293 305 339 347 303 315 335 309 291 300 274 263 263 270 253 250 252 242 245 237 240 242 242 239 238 238 235 235 238
308 308 304 299 295 293 293 287 286 284 283 283 282 282 278 278 277 280 283 283 283 288 296 295 295 301 315 339 341 324 323 337 311 297 265 279 254 265 257 247 249 246 244 241 237 244 242 242 240 241 234 240 238 240
317 315 315 305 298 307 305 302 299 297 295 292 293 293 293 294 292 289 288 291 299 302 302 300 307 326 340 339 328 324 293 332 310 300 270 277 263 262 256 248 246 247 247 240 237 241 244 243 241 244 239 239 242 245
327 327 327 326 324 315 317 315 311 308 305 303 300 296 295 294 296 301 304 306 308 311 321 333 346 346 333 336 316 337 332 320 293 299 266 270 267 260 254 248 244 246 246 239 238 242 240 241 243 242 247 250 245 246
340 337 333 328 327 326 322 321 317 312 311 310 310 309 309 308 309 306 310 324 330 346 346 343 332 323 325 329 317 337 308 325 295 303 270 271 267 259 255 250 244 245 244 240 239 238 241 242 243 248 249 250 248 241
343 339 337 332 329 327 327 320 317 318 317 316 315 314 314 319 329 328 334 345 337 326 321 316 317 311 334 325 327 338 314 299 300 274 276 275 268 259 254 252 246 245 245 244 241 244 241 244 240 244 252 251 259 261
332 334 330 327 327 328 332 332 331 332 333 330 327 325 324 329 338 339 331 328 316 312 312 310 337 342 341 326 331 326 318 316 305 277 276 276 267 261 254 253 253 250 251 250 250 251 245 251 246 248 251 253 251 254
329 323 329 335 328 332 336 338 338 337 339 339 339 340 334 329 326 318 314 313 309 304 305 321 335 329 329 334 334 327 315 313 306 293 263 274 267 260 254 254 253 251 251 252 253 253 252 251 251 251 248 251 251 254
312 313 317 314 313 314 318 321 319 321 333 334 331 326 322 319 312 302 303 303 304 301 321 324 327 325 324 326 322 320 311 306 306 293 278 273 269 265 260 254 253 252 250 250 249 252 252 251 251 253 254 253 259 261
302 304 309 312 313 312 314 313 306 302 299 304 302 299 301 304 301 299 304 295 300 316 319 328 331 325 323 326 311 314 315 307 300 298 271 269 272 269 265 263 257 255 254 252 251 251 251 255 258 258 261 267 265 262
Wind_Speed
24 30 30 37 36 37 38 33 31 35 29 36 40 42 43 44 45 47 46 42 41 39 35 34 33 34 31 32 35 32 34 29 30 32 31 29 32 35 32 34 36 37 39 41 43 44 44 46 46 48 50 44 14 6
26 35 42 40 41 38 35 32 32 29 37 41 43 46 46 47 48 46 43 42 38 34 34 35 35 33 35 34 35 27 29 30 31 31 32 34 36 37 35 36 38 39 40 43 43 41 45 47 48 40 36 15 11 7
30 40 41 43 41 34 36 34 33 37 41 45 45 45 47 48 46 46 43 38 35 35 33 34 34 35 31 29 29 30 31 33 35 33 34 34 36 37 39 40 41 42 42 40 41 46 45 42 36 32 22 15 13 9
35 44 44 36 37 32 36 36 39 42 45 47 47 48 48 48 46 41 40 39 36 34 33 32 33 31 30 30 32 33 33 36 35 36 38 36 38 38 39 39 40 41 45 45 42 43 37 33 27 22 18 16 14 13
51 53 43 43 36 34 37 40 44 46 48 47 47 50 51 47 43 42 39 35 32 33 30 32 29 29 29 30 36 33 31 32 33 35 37 39 41 42 43 43 45 45 42 41 39 33 32 29 20 25 18 22 21 18
51 50 47 40 37 40 43 45 46 48 49 50 50 50 44 44 42 39 35 34 33 32 32 32 32 31 30 30 30 31 32 32 31 32 35 38 40 40 40 42 43 42 43 35 34 31 31 25 23 28 26 27 22 23
45 41 40 40 45 45 45 48 50 53 53 51 47 47 47 44 40 40 39 38 36 36 34 31 33 31 30 30 30 31 31 32 34 35 35 37 38 39 38 43 41 39 32 31 33 33 29 28 29 34 28 34 24 26
40 44 44 45 49 48 51 53 53 51 49 49 49 47 44 41 39 37 39 37 37 36 35 34 33 32 29 28 29 30 32 33 34 36 37 40 40 41 39 41 36 31 35 36 34 31 25 29 32 38 37 37 35 28
52 49 46 49 52 52 53 51 50 51 51 48 45 44 41 40 38 38 39 36 35 34 33 32 32 31 30 30 29 29 30 31 33 34 36 37 41 40 36 33 36 38 37 34 33 30 28 29 37 38 42 41 40 33
51 51 49 53 53 54 52 51 52 51 48 47 45 43 39 37 39 37 36 35 33 31 29 28 28 28 28 28 28 29 30 32 34 36 37 38 36 39 40 43 41 41 36 36 32 32 30 33 36 41 44 42 39 39
48 52 53 54 54 54 54 53 52 51 48 46 43 41 38 35 38 35 36 35 32 30 28 27 27 27 28 29 29 30 31 33 34 35 29 37 43 44 47 46 38 38 28 29 39 37 33 32 36 41 43 36 42 41
53 53 55 56 54 54 53 52 51 50 48 45 42 39 36 37 36 33 33 33 33 29 27 28 27 27 27 27 28 28 30 29 26 32 41 43 24 15 15 24 38 33 30 34 43 40 38 36 37 37 36 40 43 43
55 53 55 54 54 54 53 53 50 48 47 42 38 34 33 32 34 35 35 33 30 27 27 26 26 25 24 25 26 25 23 23 35 38 10 12 8 1 11 24 34 30 32 36 42 43 41 38 36 33 35 34 35 35
55 55 55 54 55 54 54 52 48 44 42 39 36 35 34 31 31 31 29 27 27 26 25 23 22 21 23 23 24 21 29 34 31 2 2 4 11 16 25 25 26 27 30 32 37 43 40 27 35 24 22 23 17 16
53 53 54 54 55 55 53 48 45 44 41 40 38 36 33 31 29 28 28 26 24 22 20 19 20 21 23 25 29 30 31 13 8 7 10 12 15 17 19 21 22 23 25 28 30 27 22 31 29 29 34 27 18 16
53 54 53 54 54 54 51 47 46 45 42 40 38 35 33 30 28 26 24 22 21 20 19 19 20 20 24 23 27 29 10 11 17 13 17 15 16 17 17 17 17 19 20 21 24 28 32 37 36 31 24 24 21 18
54 53 53 53 53 52 50 48 46 43 41 38 35 32 30 29 27 26 24 23 22 21 21 21 19 25 27 26 27 15 16 19 15 16 21 18 19 23 23 24 23 21 20 18 16 15 20 25 23 29 26 22 17 13
54 53 52 52 51 51 49 47 46 44 41 38 36 34 33 32 29 27 26 25 23 22 22 24 26 26 25 25 12 18 17 17 15 27 22 25 29 30 28 27 25 24 25 28 34 34 33 30 24 21 15 13 12 9
53 53 52 51 51 50 49 46 44 44 41 39 37 35 33 31 30 29 26 25 24 24 25 24 26 26 25 24 16 13 16 15 22 29 28 32 33 32 31 32 37 37 34 32 28 26 23 17 16 15 11 10 9 9
53 53 53 50 49 48 46 45 44 43 41 39 37 35 34 32 31 29 28 27 27 27 27 27 28 28 25 22 13 13 15 18 29 32 34 35 36 38 36 36 30 30 24 27 25 19 18 15 15 10 11 11 12 12
52 51 40 50 48 47 44 43 42 41 39 38 38 37 36 34 33 32 31 31 30 29 29 29 29 27 24 12 12 17 20 23 33 35 37 25 36 33 33 28 31 21 29 23 19 17 15 15 11 13 13 13 14 16
49 50 43 48 44 45 45 44 42 43 42 41 40 39 38 37 37 36 34 33 33 32 32 31 29 28 23 16 20 16 22 31 35 36 41 32 36 36 27 32 24 28 23 19 17 17 17 11 14 15 15 15 16 17
45 40 41 43 42 43 44 44 44 44 43 43 43 42 41 40 39 38 36 35 34 34 34 32 29 28 24 17 24 26 26 35 38 38 42 38 33 34 29 29 26 23 22 19 19 14 15 16 16 16 17 19 21 23
39 41 38 39 38 39 41 43 43 43 43 44 44 44 43 43 41 40 39 37 38 37 35 33 31 28 27 21 28 23 29 37 41 38 42 38 34 32 35 28 25 24 22 20 17 17 18 19 19 20 21 24 26 28
37 40 41 40 40 40 41 41 42 43 43 43 43 43 43 42 41 41 39 38 38 37 34 34 33 31 29 25 30 30 33 37 43 40 37 40 33 37 32 29 27 25 22 20 18 22 23 23 24 26 25 28 29 31
36 38 40 40 38 41 42 42 43 44 44 44 43 42 41 41 40 40 40 39 38 36 35 35 34 32 28 28 30 33 30 37 42 41 40 43 38 37 34 31 28 26 24 22 22 24 26 27 28 30 29 31 33 35
32 33 33 34 34 36 36 37 38 38 39 39 39 39 39 39 39 38 38 37 36 36 35 33 28 27 27 30 32 37 37 38 41 43 40 41 40 38 36 32 28 27 27 25 25 27 27 29 32 33 36 38 36 38
26 27 28 28 29 30 31 32 34 35 36 36 36 36 37 37 36 36 36 34 31 26 23 23 25 27 27 30 32 36 37 39 42 44 42 42 41 39 38 34 30 30 29 29 29 28 31 33 35 38 39 40 40 38
17 19 21 23 25 27 28 30 31 32 32 33 34 34 34 34 31 29 27 22 21 21 22 24 26 27 29 30 32 36 39 43 44 45 45 45 42 40 38 37 34 33 33 34 33 35 32 34 32 36 43 43 49 52
12 15 16 16 18 19 21 23 24 25 26 27 27 27 26 25 22 20 19 20 22 22 23 25 25 28 31 32 32 35 38 42 46 46 45 44 42 41 39 39 39 37 38 38 39 40 37 42 38 41 44 47 46 48
8 9 10 12 13 14 15 18 20 21 22 23 22 21 21 20 19 18 18 20 22 22 23 23 24 27 28 30 32 35 39 43 47 49 40 44 43 42 41 40 40 39 40 41 42 42 42 43 45 46 44 48 48 51
10 10 10 11 11 10 10 11 12 14 16 18 18 17 17 17 19 21 21 21 22 23 23 25 27 28 29 30 34 37 41 44 47 49 44 44 45 45 45 43 43 42 41 41 41 43 44 45 47 51 53 51 56 59
12 12 12 12 14 15 15 16 16 17 18 15 15 17 17 20 22 27 25 24 22 21 23 25 29 31 32 35 39 40 42 45 47 49 44 44 46 47 47 48 48 47 47 46 46 46 47 51 54 54 57 60 60 57
Wind_Direction
209 174 167 171 182 183 190 196 193 183 196 173 171 172 174 174 174 175 179 183 190 194 199 204 211 216 199 206 214 217 217 214 217 222 226 229 230 236 241 243 247 251 255 258 263 269 274 276 282 286 288 287 262 181
175 167 165 183 185 189 193 196 181 182 172 168 171 171 170 170 173 174 176 183 187 191 198 204 197 197 206 212 213 208 210 221 219 223 229 233 239 241 246 251 255 257 261 264 269 275 280 286 290 290 290 170 194 198
168 165 179 181 186 187 181 173 173 183 164 168 170 168 169 170 171 175 179 179 186 192 198 188 195 201 209 207 202 212 216 215 219 226 233 237 239 244 249 253 257 261 267 272 279 284 288 291 292 294 181 203 181 178
173 168 180 177 181 173 170 173 171 164 166 169 168 168 168 171 175 174 178 184 189 194 189 192 195 200 199 196 202 205 212 218 224 228 235 240 243 248 254 259 265 270 274 277 284 287 287 291 290 179 185 180 189 197
163 174 179 177 168 179 172 170 165 163 166 165 165 167 173 173 172 179 181 184 191 190 192 189 197 198 197 200 203 212 216 225 230 233 238 244 249 254 259 265 269 271 275 281 284 286 286 294 199 178 196 184 213 215
170 174 175 165 174 167 167 162 159 162 163 167 171 172 167 174 179 178 181 188 182 180 180 184 187 189 196 200 205 213 219 225 231 238 243 248 252 257 262 266 269 273 275 279 283 283 288 287 205 188 199 210 238 234
172 165 162 165 161 161 163 157 161 164 168 169 166 167 173 177 178 181 187 180 179 181 188 193 191 196 206 211 214 221 229 236 240 244 248 253 256 259 263 266 266 270 274 276 279 282 282 197 200 191 215 209 233 225
160 153 158 162 161 161 159 163 165 165 166 170 171 173 175 178 183 186 179 182 183 183 188 194 200 206 213 218 224 230 238 244 247 250 254 257 259 260 263 265 269 273 277 276 275 274 260 202 206 199 207 214 224 234
156 159 158 160 161 162 163 164 162 166 170 173 172 175 177 181 183 185 182 185 187 191 193 198 205 212 219 225 229 237 245 250 253 256 259 261 262 264 266 270 273 273 271 268 267 259 210 209 202 207 207 216 221 229
161 161 160 162 162 162 162 164 167 170 171 172 175 178 181 184 184 184 187 188 193 196 199 204 211 218 226 233 238 245 251 256 259 262 264 266 270 272 273 273 270 268 265 264 207 211 214 200 201 208 209 219 220 227
159 160 161 165 164 163 164 168 170 170 172 175 177 180 181 184 185 187 189 194 200 204 207 211 218 225 233 238 245 251 257 263 267 270 276 279 276 272 268 265 252 254 230 215 198 201 200 200 207 204 212 220 222 226
159 160 164 166 164 165 168 171 172 172 176 177 179 181 182 183 186 190 194 201 205 209 213 219 226 234 241 247 253 260 266 272 279 285 282 281 287 291 237 211 195 196 203 200 194 198 200 202 206 210 209 215 223 230
162 163 167 166 164 168 171 175 175 176 178 178 179 180 183 188 190 195 201 208 213 219 224 226 232 240 249 255 261 269 279 284 286 291 312 298 299 141 158 175 172 184 189 192 192 197 202 203 209 212 210 215 220 230
162 167 168 167 167 172 176 178 176 177 178 179 180 184 190 193 195 198 199 202 208 214 221 229 238 248 254 262 274 285 287 290 298 191 304 89 102 129 143 155 166 174 183 192 196 198 205 209 211 221 222 215 223 215
165 170 171 169 171 177 181 178 177 180 181 183 186 189 193 195 196 198 200 205 210 217 225 233 241 253 266 273 278 284 293 278 217 232 162 153 153 156 161 166 173 176 182 190 197 205 211 212 216 221 220 219 184 193
170 172 175 174 177 181 182 180 182 184 186 188 190 193 195 199 201 203 206 210 215 221 230 241 253 263 270 278 283 296 234 212 173 190 163 168 166 172 177 180 182 168 179 192 205 212 211 212 217 220 178 165 165 174
173 175 178 179 181 183 184 185 186 189 190 192 195 199 201 204 207 209 211 215 222 229 237 250 258 266 273 283 295 196 194 196 213 204 179 174 165 153 145 144 146 144 145 148 150 158 184 185 188 155 153 161 178 199
175 179 183 183 186 187 188 189 191 192 194 195 198 201 204 208 211 214 219 224 230 240 250 256 262 269 278 291 216 194 200 208 212 179 188 172 160 152 149 150 151 153 152 145 140 142 144 148 155 162 178 177 192 223
179 182 186 188 189 191 192 194 196 198 199 201 204 207 210 213 216 220 225 231 239 248 253 263 266 271 281 295 197 213 205 207 200 187 176 166 159 157 158 155 147 144 146 148 154 154 155 187 171 174 201 204 211 233
185 186 189 192 194 196 197 198 199 201 204 208 210 213 216 218 222 226 231 236 246 251 255 260 266 280 287 307 216 204 203 196 189 179 170 165 163 156 153 152 158 159 165 162 163 175 174 183 186 209 209 225 241 259
189 191 191 195 199 201 203 203 204 207 209 212 214 217 220 223 226 229 237 243 246 252 256 263 273 280 289 273 253 211 197 191 183 180 178 182 171 170 168 174 172 180 170 179 183 186 193 194 234 222 236 255 269 280
195 197 200 200 201 204 207 208 209 213 215 218 220 223 225 228 232 236 240 243 248 253 258 265 275 280 289 222 209 224 205 194 188 186 184 186 183 180 187 180 186 181 187 190 198 200 205 237 234 245 263 273 274 285
205 208 207 208 209 210 211 214 216 218 219 222 225 228 231 234 237 239 242 246 252 259 263 271 273 276 282 249 214 207 208 198 195 193 191 190 191 188 192 190 193 195 196 206 211 221 227 240 249 262 271 276 284 292
211 213 213 214 212 215 217 219 220 222 224 226 229 231 234 236 239 243 248 252 256 260 264 268 269 271 275 260 219 228 215 206 200 196 198 193 193 196 195 200 203 203 211 216 225 237 244 250 260 267 275 280 287 293
208 211 214 215 215 219 222 223 226 227 228 230 232 235 237 241 244 249 252 255 258 262 264 264 266 268 269 245 224 224 216 210 203 200 195 195 202 199 203 210 211 215 220 226 236 243 253 258 265 270 276 282 289 294
211 214 217 218 220 224 226 227 229 231 233 235 238 241 244 246 248 250 253 256 260 260 260 260 262 263 246 229 227 222 212 210 204 202 200 198 203 204 208 216 221 224 229 236 245 253 258 265 271 276 282 288 293 296
212 215 217 219 220 222 224 225 228 231 233 235 238 241 243 247 250 253 255 256 258 260 262 259 249 233 229 222 221 220 215 211 205 205 207 205 207 209 214 222 228 231 236 244 253 259 266 271 276 284 286 289 295 299
215 216 218 219 221 222 224 225 227 229 233 236 239 242 245 247 250 253 256 260 260 253 239 229 226 225 225 221 221 222 215 214 211 210 211 210 212 215 220 228 235 238 243 251 258 265 271 276 282 285 289 293 297 299
209 214 218 222 225 227 228 228 230 233 235 238 241 242 245 250 253 253 253 243 229 226 226 228 228 228 226 221 222 223 217 215 215 213 213 213 216 221 226 232 239 244 249 255 263 268 275 281 287 291 291 296 298 302
207 214 218 220 224 227 230 231 233 235 236 237 239 241 245 247 243 234 227 223 222 226 229 230 233 227 220 220 222 219 219 218 218 216 218 217 222 227 233 237 242 249 253 259 264 268 276 279 286 291 294 299 303 307
191 207 218 222 221 223 228 231 234 235 235 235 235 231 228 223 219 218 221 226 228 231 233 242 232 224 223 223 222 220 219 220 220 220 226 223 227 232 239 243 249 254 259 263 267 272 278 283 287 291 295 299 303 307
208 205 201 204 211 217 222 222 222 230 228 225 223 222 222 221 217 220 222 226 231 234 242 239 236 232 227 225 222 222 222 224 225 225 227 229 232 237 242 249 254 259 265 270 274 277 281 285 289 293 297 302 303 304
235 234 232 229 223 218 215 210 211 212 210 216 217 217 224 227 228 232 226 222 231 242 240 240 236 233 233 231 228 227 227 228 231 232 231 235 237 240 246 250 255 261 266 271 276 280 283 286 289 293 296 298 300 303